Flag for United Kingdom Weather past 2 weeks in Worcester, England, United Kingdom

Now
36 °F

Chilly.


Feels Like: 27 °F
Forecast: 30 / 40 °F
Wind: 15 mph from Northwest

Location: Pershore

Current Time: Feb 1, 2015 at 1:30:34 AM

Latest Report: Feb 1, 2015 at 12:00 AM


Visibility: 12 mi

Pressure: 29.41 "Hg

Humidity: 74%

Dew point: 28 °F

Location of WorcesterLocation

Historic Weather in Worcester — Graph

°F

Worcester temperature yesterday

Maximum temperature yesterday: 42 °F (at 1:00 PM)
Minimum temperature yesterday: 33 °F (at 12:00 AM)
Average temperature yesterday: 37 °F

Past Weeks' High & Low Weather Summary

 TemperatureHumidityPressure
High50 °F (Jan 28, 10:00 AM)99% (Jan 18, 10:00 AM)30.49 "Hg (Jan 18, 10:00 AM)
Low20 °F (Jan 23, 8:00 AM)58% (Jan 28, 2:00 PM)28.76 "Hg (Jan 30, 4:00 AM)
Average37 °F86%29.84 "Hg
* Reported Midnight between Jan 16 and Jan 17 — Midnight between Jan 31 and Feb 1, Worcester, Weather by CustomWeather, © 2014

Note: Actual official high and low records may vary slightly from our data, if they occured in-between our weather recording intervals... More about our weather records

Advertising

Worcester weather history for previous 24 hours

 ConditionsComfort  
Time TempWeatherWind HumidityBarometerVisibility
12:00 AM
Feb 1
36 °FChilly.15 mph74%29.41 "Hg12 mi
11:00 PM
Jan 31
36 °FChilly.15 mph72%29.41 "Hg12 mi
10:00 PM36 °FChilly.18 mph71%29.41 "Hg16 mi
9:00 PM37 °FChilly.20 mph70%29.38 "Hg22 mi
8:00 PM37 °FChilly.14 mph74%29.38 "Hg16 mi
7:00 PM37 °FChilly.16 mph75%29.35 "Hg25 mi
6:00 PM38 °FChilly.13 mph71%29.32 "Hg25 mi
5:00 PM40 °FQuite cool.23 mph67%29.29 "Hg28 mi
4:00 PM41 °FQuite cool.20 mph71%29.26 "Hg16 mi
3:00 PM42 °FQuite cool.21 mph67%29.23 "Hg17 mi
2:00 PM42 °FQuite cool.22 mph71%29.21 "Hg22 mi
1:00 PM42 °FQuite cool.22 mph71%29.18 "Hg19 mi
12:00 PM42 °FQuite cool.21 mph75%29.15 "Hg19 mi
11:00 AM41 °FQuite cool.18 mph81%29.12 "Hg22 mi
10:00 AM38 °FChilly.16 mph86%29.06 "Hg19 mi
9:00 AM38 °FLight rain. Cloudy.17 mph93%29.03 "Hg11 mi
8:00 AM36 °FRain. Cloudy.14 mph95%29.00 "Hg6 mi
7:00 AM36 °FDrizzle. Overcast.15 mph93%28.97 "Hg7 mi
6:00 AM36 °FChilly.7 mph92%28.94 "Hg16 mi
5:00 AM35 °FChilly.3 mph97%28.94 "Hg11 mi
4:00 AM34 °FLots of rain. Overcast.3 mph97%28.94 "Hg4 mi
3:00 AM34 °FLight rain. Overcast.7 mph95%28.97 "Hg11 mi
2:00 AM33 °FSnow flurries. Overcast.6 mph96%28.94 "Hg4 mi
1:00 AM34 °FChilly.7 mph88%28.94 "Hg19 mi
Weather by CustomWeather, © 2014

See weather overviewHow to use our weather pages